Location: Chrome
(40.5765°N, 74.2163°W)
Time: 23:54:56
(UTC+00:00)

Cosmos 2251 Rocket - Pass Details

Date: 06 December 2019
Orbit: 765 x 791 km, 74.0° (Epoch: 24 January)

Event Time Altitude Azimuth Distance (km) Brightness Sun altitude
Rises 22:57:34 0° 203° (SSW) 3,259 7.3 -16.2°
Reaches altitude 10° 22:59:58 10° 205° (SSW) 2,331 6.6 -16.6°
Maximum altitude 23:05:15 73° 290° (WNW) 817 3.7 -17.6°
Drops below altitude 10° 23:10:32 10° 15° (NNE) 2,329 5.7 -18.6°
Enters shadow 23:10:33 10° 15° (NNE) 2,333 5.7 -18.6°
